Time,TemperatureF,DewpointF,PressureIn,WindDirection,WindDirectionDegrees,WindSpeedMPH,WindSpeedGustMPH,Humidity,HourlyPrecipIn,Conditions,Clouds,dailyrainin,SolarRadiationWatts/m^2,SoftwareType,DateUTC
2013-01-09 00:02:00,30.0,29.0,-100.00,NNW,333,2.0,3.0,97,0.00,,,0.11,0.000000,,2013-01-09 07:02:00,
2013-01-09 00:11:00,30.0,29.0,-100.00,NNW,333,2.0,3.0,97,0.00,,,0.11,0.000000,,2013-01-09 07:11:00,
2013-01-09 00:32:00,30.0,29.0,-100.00,North,357,1.0,3.0,98,0.00,,,0.10,0.000000,,2013-01-09 07:32:00,
2013-01-09 00:42:00,30.0,29.0,-100.00,North,357,1.0,3.0,98,0.00,,,0.10,0.000000,,2013-01-09 07:42:00,
2013-01-09 00:52:00,30.0,29.0,-100.00,North,357,1.0,3.0,98,0.00,,,0.10,0.000000,,2013-01-09 07:52:00,
2013-01-09 01:02:00,30.0,29.0,-100.00,North,357,1.0,3.0,98,0.00,,,0.10,0.000000,,2013-01-09 08:02:00,
2013-01-09 01:12:00,30.0,29.0,-100.00,North,357,1.0,3.0,98,0.00,,,0.10,0.000000,,2013-01-09 08:12:00,
2013-01-09 01:43:00,35.0,35.0,-100.00,South,175,3.0,8.0,99,0.00,,,0.08,0.000000,,2013-01-09 08:43:00,
2013-01-09 01:53:00,35.0,35.0,-100.00,South,175,3.0,8.0,99,0.00,,,0.08,0.000000,,2013-01-09 08:53:00,
2013-01-09 02:02:00,35.0,35.0,-100.00,South,175,3.0,8.0,99,0.00,,,0.08,0.000000,,2013-01-09 09:02:00,
2013-01-09 02:11:00,35.0,35.0,-100.00,South,175,3.0,8.0,99,0.00,,,0.08,0.000000,,2013-01-09 09:11:00,
2013-01-09 02:32:00,36.0,34.0,-100.00,SSW,211,4.0,9.0,92,0.00,,,0.06,0.000000,,2013-01-09 09:32:00,
2013-01-09 02:42:00,36.0,34.0,-100.00,SSW,211,4.0,9.0,92,0.00,,,0.06,0.000000,,2013-01-09 09:42:00,
2013-01-09 02:53:00,36.0,34.0,-100.00,SSW,211,4.0,9.0,92,0.00,,,0.06,0.000000,,2013-01-09 09:53:00,
2013-01-09 03:02:00,36.0,34.0,-100.00,SSW,211,4.0,9.0,92,0.00,,,0.06,0.000000,,2013-01-09 10:02:00,
2013-01-09 03:11:00,36.0,34.0,-100.00,SSW,211,4.0,9.0,92,0.00,,,0.06,0.000000,,2013-01-09 10:11:00,
2013-01-09 03:32:00,35.0,33.0,-100.00,East,93,2.0,7.0,93,0.05,,,-99.99,0.000000,,2013-01-09 10:32:00,
2013-01-09 03:42:00,35.0,33.0,-100.00,East,93,2.0,7.0,93,0.05,,,-99.99,0.000000,,2013-01-09 10:42:00,
2013-01-09 03:52:00,35.0,33.0,-100.00,East,93,2.0,7.0,93,0.05,,,-99.99,0.000000,,2013-01-09 10:52:00,
2013-01-09 04:02:00,35.0,33.0,-100.00,East,93,2.0,7.0,93,0.05,,,-99.99,0.000000,,2013-01-09 11:02:00,
2013-01-09 04:11:00,35.0,33.0,-100.00,East,93,2.0,7.0,93,0.05,,,-99.99,0.000000,,2013-01-09 11:11:00,
2013-01-09 04:33:00,36.0,35.0,-100.00,SW,218,3.0,12.0,96,0.02,,,0.13,0.000000,,2013-01-09 11:33:00,
2013-01-09 04:42:00,36.0,35.0,-100.00,SW,218,3.0,12.0,96,0.02,,,0.13,0.000000,,2013-01-09 11:42:00,
2013-01-09 04:53:00,36.0,35.0,-100.00,SW,218,3.0,12.0,96,0.02,,,0.13,0.000000,,2013-01-09 11:53:00,
2013-01-09 05:03:00,36.0,35.0,-100.00,SW,218,3.0,12.0,96,0.02,,,0.13,0.000000,,2013-01-09 12:03:00,
2013-01-09 05:12:00,36.0,35.0,-100.00,SW,218,3.0,12.0,96,0.02,,,0.13,0.000000,,2013-01-09 12:12:00,
2013-01-09 05:33:00,37.0,30.0,-100.00,North,355,4.0,14.0,76,0.01,,,0.14,0.000000,,2013-01-09 12:33:00,
2013-01-09 05:43:00,37.0,30.0,-100.00,North,355,4.0,14.0,76,0.01,,,0.14,0.000000,,2013-01-09 12:43:00,
2013-01-09 05:53:00,37.0,30.0,-100.00,North,355,4.0,14.0,76,0.01,,,0.14,0.000000,,2013-01-09 12:53:00,
2013-01-09 06:02:00,37.0,30.0,-100.00,North,355,4.0,14.0,76,0.01,,,0.14,0.000000,,2013-01-09 13:02:00,
2013-01-09 06:12:00,37.0,30.0,-100.00,North,355,4.0,14.0,76,0.01,,,0.14,0.000000,,2013-01-09 13:12:00,
2013-01-09 06:33:00,42.0,30.0,-100.00,WSW,250,4.0,18.0,63,0.04,,,0.18,0.000000,,2013-01-09 13:33:00,
2013-01-09 06:43:00,42.0,30.0,-100.00,WSW,250,4.0,18.0,63,0.04,,,0.18,0.000000,,2013-01-09 13:43:00,
2013-01-09 06:53:00,42.0,30.0,-100.00,WSW,250,4.0,18.0,63,0.04,,,0.18,0.000000,,2013-01-09 13:53:00,
2013-01-09 07:02:00,42.0,30.0,-100.00,WSW,250,4.0,18.0,63,0.04,,,0.18,0.000000,,2013-01-09 14:02:00,
2013-01-09 07:12:00,42.0,30.0,-100.00,WSW,250,4.0,18.0,63,0.04,,,0.18,0.000000,,2013-01-09 14:12:00,
2013-01-09 07:33:00,40.0,28.0,-100.00,NNW,335,3.0,13.0,62,0.00,,,0.18,0.000000,,2013-01-09 14:33:00,
2013-01-09 07:43:00,40.0,28.0,-100.00,NNW,335,3.0,13.0,62,0.00,,,0.18,0.000000,,2013-01-09 14:43:00,
2013-01-09 07:53:00,40.0,28.0,-100.00,NNW,335,3.0,13.0,62,0.00,,,0.18,0.000000,,2013-01-09 14:53:00,
2013-01-09 08:03:00,40.0,28.0,-100.00,NNW,335,3.0,13.0,62,0.00,,,0.18,0.000000,,2013-01-09 15:03:00,
2013-01-09 08:12:00,40.0,28.0,-100.00,NNW,335,3.0,13.0,62,0.00,,,0.18,0.000000,,2013-01-09 15:12:00,
2013-01-09 08:33:00,42.0,25.0,-100.00,SW,219,4.0,12.0,51,0.00,,,0.18,0.000000,,2013-01-09 15:33:00,
2013-01-09 08:43:00,42.0,25.0,-100.00,SW,219,4.0,12.0,51,0.00,,,0.18,0.000000,,2013-01-09 15:43:00,
2013-01-09 08:53:00,42.0,25.0,-100.00,SW,219,4.0,12.0,51,0.00,,,0.18,0.000000,,2013-01-09 15:53:00,
2013-01-09 09:03:00,42.0,25.0,-100.00,SW,219,4.0,12.0,51,0.00,,,0.18,0.000000,,2013-01-09 16:03:00,
2013-01-09 09:12:00,42.0,25.0,-100.00,SW,219,4.0,12.0,51,0.00,,,0.18,0.000000,,2013-01-09 16:12:00,
2013-01-09 09:33:00,40.0,26.0,-100.00,South,179,8.0,23.0,56,0.00,,,0.18,6.000000,,2013-01-09 16:33:00,
2013-01-09 09:43:00,40.0,26.0,-100.00,South,179,8.0,23.0,56,0.00,,,0.18,6.000000,,2013-01-09 16:43:00,
2013-01-09 09:53:00,40.0,26.0,-100.00,South,179,8.0,23.0,56,0.00,,,0.18,6.000000,,2013-01-09 16:53:00,
2013-01-09 10:02:00,40.0,26.0,-100.00,South,179,8.0,23.0,56,0.00,,,0.18,6.000000,,2013-01-09 17:02:00,
2013-01-09 10:12:00,40.0,26.0,-100.00,South,179,8.0,23.0,56,0.00,,,0.18,6.000000,,2013-01-09 17:12:00,
2013-01-09 10:43:00,39.0,31.0,-100.00,South,184,6.0,15.0,74,0.00,,,0.18,23.000000,,2013-01-09 17:43:00,
2013-01-09 10:53:00,39.0,31.0,-100.00,South,184,6.0,15.0,74,0.00,,,0.18,23.000000,,2013-01-09 17:53:00,
2013-01-09 11:03:00,39.0,31.0,-100.00,South,184,6.0,15.0,74,0.00,,,0.18,23.000000,,2013-01-09 18:03:00,
2013-01-09 11:12:00,39.0,31.0,-100.00,South,184,6.0,15.0,74,0.00,,,0.18,23.000000,,2013-01-09 18:12:00,
2013-01-09 11:33:00,37.0,34.0,-100.00,SE,146,5.0,16.0,88,0.00,,,0.16,38.000000,,2013-01-09 18:33:00,
2013-01-09 11:43:00,37.0,34.0,-100.00,SE,146,5.0,16.0,88,0.00,,,0.16,38.000000,,2013-01-09 18:43:00,
2013-01-09 11:53:00,37.0,34.0,-100.00,SE,146,5.0,16.0,88,0.00,,,0.16,38.000000,,2013-01-09 18:53:00,
2013-01-09 12:02:00,37.0,34.0,-100.00,SE,146,5.0,16.0,88,0.00,,,0.16,38.000000,,2013-01-09 19:02:00,
2013-01-09 12:12:00,37.0,34.0,-100.00,SE,146,5.0,16.0,88,0.00,,,0.16,38.000000,,2013-01-09 19:12:00,
2013-01-09 13:43:00,36.0,33.0,-100.00,SE,146,8.0,15.0,89,-99.99,,,0.13,93.000000,,2013-01-09 20:43:00,
2013-01-09 13:53:00,36.0,33.0,-100.00,SE,146,8.0,15.0,89,-99.99,,,0.13,93.000000,,2013-01-09 20:53:00,
2013-01-09 14:03:00,36.0,33.0,-100.00,SE,146,8.0,15.0,89,-99.99,,,0.13,93.000000,,2013-01-09 21:03:00,
2013-01-09 14:12:00,36.0,33.0,-100.00,SE,146,8.0,15.0,89,-99.99,,,0.13,93.000000,,2013-01-09 21:12:00,
2013-01-09 14:33:00,37.0,35.0,-100.00,SSE,151,6.0,17.0,91,0.00,,,0.13,94.000000,,2013-01-09 21:33:00,
2013-01-09 14:43:00,37.0,35.0,-100.00,SSE,151,6.0,17.0,91,0.00,,,0.13,94.000000,,2013-01-09 21:43:00,
2013-01-09 14:53:00,37.0,35.0,-100.00,SSE,151,6.0,17.0,91,0.00,,,0.13,94.000000,,2013-01-09 21:53:00,
2013-01-09 15:03:00,37.0,35.0,-100.00,SSE,151,6.0,17.0,91,0.00,,,0.13,94.000000,,2013-01-09 22:03:00,
2013-01-09 15:12:00,37.0,35.0,-100.00,SSE,151,6.0,17.0,91,0.00,,,0.13,94.000000,,2013-01-09 22:12:00,
2013-01-09 15:43:00,37.0,34.0,-100.00,SSE,155,5.0,13.0,89,0.00,,,0.13,92.000000,,2013-01-09 22:43:00,
2013-01-09 15:52:00,37.0,34.0,-100.00,SSE,155,5.0,13.0,89,0.00,,,0.13,92.000000,,2013-01-09 22:52:00,
2013-01-09 16:02:00,37.0,34.0,-100.00,SSE,155,5.0,13.0,89,0.00,,,0.13,92.000000,,2013-01-09 23:02:00,
2013-01-09 16:12:00,37.0,34.0,-100.00,SSE,155,5.0,13.0,89,0.00,,,0.13,92.000000,,2013-01-09 23:12:00,
2013-01-09 16:33:00,37.0,34.0,-100.00,SSE,163,3.0,13.0,87,0.00,,,0.13,64.000000,,2013-01-09 23:33:00,
2013-01-09 16:43:00,37.0,34.0,-100.00,SSE,163,3.0,13.0,87,0.00,,,0.13,64.000000,,2013-01-09 23:43:00,
2013-01-09 16:53:00,37.0,34.0,-100.00,SSE,163,3.0,13.0,87,0.00,,,0.13,64.000000,,2013-01-09 23:53:00,
2013-01-09 17:02:00,37.0,34.0,-100.00,SSE,163,3.0,13.0,87,0.00,,,0.13,64.000000,,2013-01-10 00:02:00,
2013-01-09 17:12:00,37.0,34.0,-100.00,SSE,163,3.0,13.0,87,0.00,,,0.13,64.000000,,2013-01-10 00:12:00,
2013-01-09 17:33:00,36.0,33.0,-100.00,SW,218,3.0,9.0,90,0.00,,,0.13,12.000000,,2013-01-10 00:33:00,
2013-01-09 17:43:00,36.0,33.0,-100.00,SW,218,3.0,9.0,90,0.00,,,0.13,12.000000,,2013-01-10 00:43:00,
2013-01-09 17:53:00,36.0,33.0,-100.00,SW,218,3.0,9.0,90,0.00,,,0.13,12.000000,,2013-01-10 00:53:00,
2013-01-09 18:02:00,36.0,33.0,-100.00,SW,218,3.0,9.0,90,0.00,,,0.13,12.000000,,2013-01-10 01:02:00,
2013-01-09 18:12:00,36.0,33.0,-100.00,SW,218,3.0,9.0,90,0.00,,,0.13,12.000000,,2013-01-10 01:12:00,
2013-01-09 18:33:00,36.0,34.0,-100.00,SE,133,2.0,7.0,91,0.00,,,-99.99,0.000000,,2013-01-10 01:33:00,
2013-01-09 18:43:00,36.0,34.0,-100.00,SE,133,2.0,7.0,91,0.00,,,-99.99,0.000000,,2013-01-10 01:43:00,
2013-01-09 18:53:00,36.0,34.0,-100.00,SE,133,2.0,7.0,91,0.00,,,-99.99,0.000000,,2013-01-10 01:53:00,
2013-01-09 19:02:00,36.0,34.0,-100.00,SE,133,2.0,7.0,91,0.00,,,-99.99,0.000000,,2013-01-10 02:02:00,
2013-01-09 19:12:00,36.0,34.0,-100.00,SE,133,2.0,7.0,91,0.00,,,-99.99,0.000000,,2013-01-10 02:12:00,
2013-01-09 20:02:00,35.0,32.0,-100.00,West,259,4.0,11.0,90,0.05,,,0.18,0.000000,,2013-01-10 03:02:00,
2013-01-09 20:11:00,35.0,32.0,-100.00,West,259,4.0,11.0,90,0.05,,,0.18,0.000000,,2013-01-10 03:11:00,
2013-01-09 20:33:00,33.0,32.0,-100.00,NNW,329,2.0,11.0,95,0.01,,,0.19,0.000000,,2013-01-10 03:33:00,
2013-01-09 20:43:00,33.0,32.0,-100.00,NNW,329,2.0,11.0,95,0.01,,,0.19,0.000000,,2013-01-10 03:43:00,
2013-01-09 20:52:00,33.0,32.0,-100.00,NNW,329,2.0,11.0,95,0.01,,,0.19,0.000000,,2013-01-10 03:52:00,
2013-01-09 21:02:00,33.0,32.0,-100.00,NNW,329,2.0,11.0,95,0.01,,,0.19,0.000000,,2013-01-10 04:02:00,
2013-01-09 21:12:00,33.0,32.0,-100.00,NNW,329,2.0,11.0,95,0.01,,,0.19,0.000000,,2013-01-10 04:12:00,
2013-01-09 21:32:00,32.0,31.0,-100.00,East,90,2.0,5.0,97,0.00,,,0.19,0.000000,,2013-01-10 04:32:00,
2013-01-09 21:43:00,32.0,31.0,-100.00,East,90,2.0,5.0,97,0.00,,,0.19,0.000000,,2013-01-10 04:43:00,
2013-01-09 21:52:00,32.0,31.0,-100.00,East,90,2.0,5.0,97,0.00,,,0.19,0.000000,,2013-01-10 04:52:00,
2013-01-09 22:03:00,32.0,31.0,-100.00,East,90,2.0,5.0,97,0.00,,,0.19,0.000000,,2013-01-10 05:03:00,
2013-01-09 22:12:00,32.0,31.0,-100.00,East,90,2.0,5.0,97,0.00,,,0.19,0.000000,,2013-01-10 05:12:00,
2013-01-09 22:43:00,32.0,31.0,-100.00,East,83,2.0,4.0,97,0.00,,,0.19,0.000000,,2013-01-10 05:43:00,
2013-01-09 22:52:00,32.0,31.0,-100.00,East,83,2.0,4.0,97,0.00,,,0.19,0.000000,,2013-01-10 05:52:00,
2013-01-09 23:02:00,32.0,31.0,-100.00,East,83,2.0,4.0,97,0.00,,,0.19,0.000000,,2013-01-10 06:02:00,
2013-01-09 23:11:00,32.0,31.0,-100.00,East,83,2.0,4.0,97,0.00,,,0.19,0.000000,,2013-01-10 06:11:00,
2013-01-09 23:32:00,32.0,31.0,-100.00,SSE,162,3.0,6.0,97,0.00,,,0.19,0.000000,,2013-01-10 06:32:00,
2013-01-09 23:42:00,32.0,31.0,-100.00,SSE,162,3.0,6.0,97,0.00,,,0.19,0.000000,,2013-01-10 06:42:00,
2013-01-09 23:52:00,32.0,31.0,-100.00,SSE,162,3.0,6.0,97,0.00,,,0.19,0.000000,,2013-01-10 06:52:00,